Ted Stevens Anchorage International Airport Anchorage US
ICAO: PANC
IATA: ANC
Category: Large
Scheduled Services:

Elevation: 152 ft
TransAlt. 18000 ft.

Airport Communications:
APP/DEP:119.1
APP/DEP:123.8
ATIS:118.4
TWEB:114.3
CLNC DEL:119.4
KENAI RDO:122.2
GND:121.9
SAN FRANCISCO ARINC:1133
CAMPER:140.15
KENAI RDO:122.55
TWR:118.3
UNICOM:122.95

PANC Zoom In..

If you have problems with the map follow the link
https://www.worldairports.se/pages/airport.php?
ICAO=PANC

Runways:

(A) RW 07L length 10600 ft width 150 ft
ILS 109.90 / hdg 71

(B) RW 07R length 12400 ft width 200 ft
ILS 111.30 / hdg 71

(C) RW 15 length 11584 ft width 150 ft
ILS 111.75 / hdg 146

(D) RW 25L length 12400 ft width 200 ft
---- / hdg 251

(E) RW 25R length 10600 ft width 150 ft
---- / hdg 251

(F) RW 33 length 11584 ft width 150 ft
---- / hdg 326

Location; PANC
Day. 14 / Time. 20.53 Zulu
* Altimeter: 29.32
* Temperature: -10° c. -14°f.
* Wind from: 020° Speed 06 kn.
Dewpoint: -13° c.
Visibility: 10 Statute Miles.
Clouds: Few 800 ft.
Clouds: Broken 4000 ft.
Clouds: Overcast 1000 ft.

PANC 142053Z 02006KT 10SM FEW008 BKN040 OVC100 M10/M13 A2932 RMK AO2 SLP931 T11001133 58002 $


Wind From 020°
Speed 06 kn.

 
 
jpsmedia.com for Web Design worldairports.se 2018   terms of use